Greenville, MS

7:02 AM CDT on May 20, 2018 (GMT -0500)
Mid Delta Regional

Weather History for KGLH - January, 2014

Change the Weather History Date:

Saturday, January 25, 2014

  Actual Average Record
Temperature  
Mean Temperature 42 °F 42 °F  
Max Temperature 56 °F 52 °F 90 °F (1950)
Min Temperature 27 °F 32 °F 8 °F (1963)
Degree Days  
Heating Degree Days 23 23  
Month to date heating degree days 634 572  
Since 1 July heating degree days 1810 1656  
Cooling Degree Days 0 0  
Month to date cooling degree days 0 0  
Year to date cooling degree days 0 0  
Moisture  
Dew Point 21 °F    
Average Humidity 48    
Maximum Humidity 69    
Minimum Humidity 27    
Precipitation  
Precipitation 0.00 in 0.17 in 2.55 in (1937)
Month to date precipitation 0.84 3.89  
Year to date precipitation 0.84 3.89  
Sea Level Pressure  
Sea Level Pressure 30.10 in    
Wind  
Wind Speed 10 mph (SW)    
Max Wind Speed 20 mph    
Max Gust Speed 26 mph    
Visibility 10 miles    
Events      
T = Trace of Precipitation, MM = Missing Value Source: NWS Daily Summary

Daily Weather History Graph

Daily Weather History Graph

Search for Another Location

Airport or City:

Astronomy

Jan. 25, 2014 Rise Set
Actual Time 7:04 AM CST 5:28 PM CST
Civil Twilight 6:37 AM CST 5:55 PM CST
Nautical Twilight 6:07 AM CST 6:25 PM CST
Astronomical Twilight 5:38 AM CST 6:54 PM CST
Moon 1:37 AM CST (1/25) 12:28 PM CST (1/25)
Length of Visible Light 11h 17m
Length of Day
10h 24m
Waning Crescent, 34% of the Moon is Illuminated
Jan 25
Waning Crescent
Jan 30
New
Feb 6
First Quarter
Feb 14
Full
Feb 22
Last Quarter

Hourly Weather History & Observations

Time (CST) Temp. Windchill Dew Point Humidity Pressure Visibility Wind Dir Wind Speed Gust Speed Precip Events Conditions
12:53 AM 27.0 °F 17.3 °F 10.0 °F 49% 30.27 in 10.0 mi SW 10.4 mph - N/A   Clear
1:53 AM 28.0 °F 17.0 °F 14.0 °F 56% 30.23 in 10.0 mi SW 13.8 mph - N/A   Clear
2:53 AM 28.9 °F 17.7 °F 15.1 °F 56% 30.20 in 10.0 mi SW 15.0 mph - N/A   Clear
3:53 AM 28.0 °F 16.1 °F 15.1 °F 58% 30.17 in 10.0 mi SW 16.1 mph - N/A   Clear
4:53 AM 28.0 °F 17.0 °F 16.0 °F 61% 30.15 in 10.0 mi SW 13.8 mph - N/A   Clear
5:53 AM 28.0 °F 17.5 °F 17.1 °F 63% 30.13 in 10.0 mi SSW 12.7 mph - N/A   Clear
6:53 AM 28.0 °F 18.1 °F 17.1 °F 63% 30.11 in 10.0 mi SSW 11.5 mph - N/A   Clear
7:53 AM 30.9 °F 20.2 °F 19.0 °F 61% 30.12 in 10.0 mi SW 15.0 mph 19.6 mph N/A   Clear
8:53 AM 34.0 °F 24.6 °F 19.9 °F 56% 30.13 in 10.0 mi WSW 13.8 mph - N/A   Clear
9:53 AM 39.0 °F 29.6 °F 19.9 °F 46% 30.12 in 10.0 mi WSW 18.4 mph - N/A   Clear
10:53 AM 43.0 °F 35.4 °F 19.9 °F 40% 30.11 in 10.0 mi West 16.1 mph - N/A   Clear
11:53 AM 46.9 °F - 21.0 °F 36% 30.08 in 10.0 mi West 10.4 mph - N/A   Clear
12:53 PM 51.1 °F - 21.9 °F 32% 30.05 in 10.0 mi SW 9.2 mph - N/A   Clear
1:53 PM 54.0 °F - 21.9 °F 29% 30.03 in 10.0 mi West 8.1 mph - N/A   Clear
2:53 PM 55.0 °F - 23.0 °F 29% 30.03 in 10.0 mi SW 6.9 mph - N/A   Clear
3:53 PM 55.0 °F - 24.1 °F 30% 30.02 in 10.0 mi SW 5.8 mph - N/A   Clear
4:53 PM 52.0 °F - 25.0 °F 35% 30.03 in 10.0 mi SSW 6.9 mph - N/A   Clear
5:53 PM 46.0 °F 44.8 °F 25.0 °F 44% 30.04 in 10.0 mi South 3.5 mph - N/A   Clear
6:53 PM 45.0 °F 41.8 °F 25.0 °F 46% 30.06 in 10.0 mi South 5.8 mph - N/A   Clear
7:53 PM 41.0 °F 36.4 °F 25.0 °F 53% 30.07 in 10.0 mi South 6.9 mph - N/A   Clear
8:53 PM 37.9 °F 32.1 °F 25.0 °F 60% 30.06 in 10.0 mi South 8.1 mph - N/A   Clear
9:53 PM 34.0 °F 28.0 °F 25.0 °F 70% 30.06 in 10.0 mi SSW 6.9 mph - N/A   Clear
10:53 PM 33.1 °F 26.1 °F 25.0 °F 72% 30.05 in 10.0 mi SSW 8.1 mph - N/A   Clear
11:53 PM 35.1 °F 29.3 °F 25.0 °F 67% 30.03 in 7.0 mi SSW 6.9 mph - N/A   Clear